SCP
0 0 0 0 0 0 0 0 0 0 0 0 0 0 0 0 0 0 0 0 0 0
0 0 0 0 0 0 0 0 0 0 0 0 0 0 0 0 0 -0 0 0 0 0
0 0 0 0 0 0 0 0 0 0 0 0 0 0 0 0 0 0 0 0 0 0
0 0 0 0 0 0 0 0 0 0 0 0 0 0 0 0 0 0 0 0 0 0
0 0 0 0 0 0 0 0 0 0 0 0 0 0 0 0 0 0 0 0 0 -0
0 0 0 0 0 0 0 0 0 0 0 0 0 0 0 0 0 0 0 0 0 0
0 0 0 0 0 0 0 0 0 0 0 0 0 0 0 0 0 0 0 0 0 0
0 0 0 0 0 0 0 0 0 0 0 0 -0 -0 -0 0 0 -0 0 0 0 0
0 0 0 0 0 0 0 0 0 0 0 0 -0 0 0 0 0 0 0 0 0 0
0 0 0 0 0 0 0 0 0 0 0 -0 0 0 0 0 0 0 0 0 0 0
0 0 0 0 0 0 0 0 0 0 0 0 0 0 0 0 0 0 0 0 0 0
0 0 0 0 0 0 0 0 0 0 0 -0 0 0 0 0 0 0 0 0 0 0
0 0 0 0 0 0 0 0 0 0 0 -0 0 0 0 0 0 0 0 0 0 0
0 0 0 0 0 0 0 0 0 0 -0 -0 0 0 0 0 0 0 0 0 0 0
Wind_Speed_500mb
42 46 47 44 48 51 58 62 60 55 52 53 49 46 41 52 56 48 38 37 40 33
46 45 45 48 52 58 60 59 58 53 49 50 48 46 41 40 35 46 43 41 41 39
44 46 49 53 55 57 58 56 54 54 56 55 51 44 44 44 42 49 37 33 31 32
44 47 52 57 60 57 53 50 53 55 58 55 50 41 40 41 40 42 36 33 31 30
47 55 60 61 53 46 49 53 55 57 52 49 44 33 31 36 41 37 35 28 26 28
54 58 56 53 49 45 49 54 55 52 44 39 29 24 28 27 31 30 27 24 30 20
59 57 58 56 51 46 45 48 51 47 42 37 26 22 22 27 27 21 25 24 23 19
56 53 48 46 44 37 37 43 47 46 39 38 32 21 21 21 28 24 29 23 20 11
43 43 42 39 38 38 41 43 46 42 38 33 21 19 22 21 11 22 30 21 17 8
39 41 43 41 44 48 49 44 43 37 29 30 26 19 25 25 19 24 22 15 13 10
42 45 45 47 50 53 49 38 39 33 24 30 21 20 31 32 28 24 18 15 13 10
44 51 49 44 50 48 44 35 35 33 29 28 22 10 28 40 32 28 19 19 11 13
44 54 50 42 48 45 41 35 30 28 24 26 29 7 31 36 32 34 23 21 17 19
47 52 41 40 47 46 38 30 26 21 30 32 28 14 30 36 40 33 26 19 17 18
Wind_Direction_500mb
280 283 286 290 298 307 313 311 311 310 309 309 306 297 274 243 257 260 243 253 254 260
283 285 288 291 297 304 309 304 306 308 310 311 307 295 273 262 238 233 245 255 260 250
286 289 293 297 300 304 305 302 304 306 306 308 302 297 270 246 245 237 243 249 251 251
293 297 300 304 306 306 302 303 308 310 308 307 303 294 269 248 239 237 231 244 250 253
306 306 308 310 311 304 300 306 312 313 311 307 300 285 254 246 234 230 234 232 245 263
312 311 312 315 313 305 302 305 313 312 310 317 298 276 253 230 230 234 220 216 250 251
315 316 316 317 315 306 307 308 313 314 303 316 305 274 246 230 229 225 211 226 233 245
319 320 322 324 326 320 309 313 313 314 305 317 295 249 240 236 229 222 205 231 229 245
332 336 332 328 331 325 316 315 316 315 307 305 295 252 232 216 218 196 205 225 224 190
334 334 337 332 329 326 322 313 316 319 306 304 284 266 228 216 190 202 214 204 189 229
334 332 328 328 330 329 327 320 319 320 315 325 282 272 214 201 200 207 188 187 156 148
339 338 330 328 332 334 333 329 325 327 329 331 288 289 193 188 194 200 188 168 164 151
333 335 330 335 338 334 329 325 325 336 334 335 320 231 179 188 198 186 192 174 184 174
333 335 335 338 338 334 331 326 330 337 337 337 305 237 191 187 186 192 178 173 177 177
Wind_Speed_850mb
42 46 47 44 48 51 58 62 60 55 52 53 49 46 41 52 56 48 38 37 40 33
46 45 45 48 52 58 60 59 58 53 49 50 48 46 41 40 35 46 43 41 41 39
44 46 49 53 55 57 58 56 54 54 56 55 51 44 44 44 42 49 37 33 31 32
44 47 52 57 60 57 53 50 53 55 58 55 50 41 40 41 40 42 36 33 31 30
47 55 60 61 53 46 49 53 55 57 52 49 44 33 31 36 41 37 35 28 26 28
54 58 56 53 49 45 49 54 55 52 44 39 29 24 28 27 31 30 27 24 30 20
59 57 58 56 51 46 45 48 51 47 42 37 26 22 22 27 27 21 25 24 23 19
56 53 48 46 44 37 37 43 47 46 39 38 32 21 21 21 28 24 29 23 20 11
43 43 42 39 38 38 41 43 46 42 38 33 21 19 22 21 11 22 30 21 17 8
39 41 43 41 44 48 49 44 43 37 29 30 26 19 25 25 19 24 22 15 13 10
42 45 45 47 50 53 49 38 39 33 24 30 21 20 31 32 28 24 18 15 13 10
44 51 49 44 50 48 44 35 35 33 29 28 22 10 28 40 32 28 19 19 11 13
44 54 50 42 48 45 41 35 30 28 24 26 29 7 31 36 32 34 23 21 17 19
47 52 41 40 47 46 38 30 26 21 30 32 28 14 30 36 40 33 26 19 17 18
Wind_Direction_850mb
280 283 286 290 298 307 313 311 311 310 309 309 306 297 274 243 257 260 243 253 254 260
283 285 288 291 297 304 309 304 306 308 310 311 307 295 273 262 238 233 245 255 260 250
286 289 293 297 300 304 305 302 304 306 306 308 302 297 270 246 245 237 243 249 251 251
293 297 300 304 306 306 302 303 308 310 308 307 303 294 269 248 239 237 231 244 250 253
306 306 308 310 311 304 300 306 312 313 311 307 300 285 254 246 234 230 234 232 245 263
312 311 312 315 313 305 302 305 313 312 310 317 298 276 253 230 230 234 220 216 250 251
315 316 316 317 315 306 307 308 313 314 303 316 305 274 246 230 229 225 211 226 233 245
319 320 322 324 326 320 309 313 313 314 305 317 295 249 240 236 229 222 205 231 229 245
332 336 332 328 331 325 316 315 316 315 307 305 295 252 232 216 218 196 205 225 224 190
334 334 337 332 329 326 322 313 316 319 306 304 284 266 228 216 190 202 214 204 189 229
334 332 328 328 330 329 327 320 319 320 315 325 282 272 214 201 200 207 188 187 156 148
339 338 330 328 332 334 333 329 325 327 329 331 288 289 193 188 194 200 188 168 164 151
333 335 330 335 338 334 329 325 325 336 334 335 320 231 179 188 198 186 192 174 184 174
333 335 335 338 338 334 331 326 330 337 337 337 305 237 191 187 186 192 178 173 177 177